Winnipeg, Manitoba

2:29 AM CDT on October 18, 2017 (GMT -0500)
Winnipeg International Airport

Weather History for CYWG - August, 2013

Change the Weather History Date:

Sunday, August 25, 2013

  Actual Average Record
Temperature  
Mean Temperature 80 °F -  
Max Temperature 91 °F 67 °F 91 °F (2013)
Min Temperature 68 °F 45 °F 37 °F (2015)
Cooling Degree Days 14    
Growing Degree Days 30 (Base 50)    
Moisture  
Dew Point 65 °F    
Average Humidity 68    
Maximum Humidity 99    
Minimum Humidity 29    
Precipitation  
Precipitation 0.02 in 0.07 in - ()
Sea Level Pressure  
Sea Level Pressure 29.84 in    
Wind  
Wind Speed 6 mph ()    
Max Wind Speed 14 mph    
Max Gust Speed -    
Visibility 13.0 miles    
Events      
Averages and records for this station are not official NWS values.
T = Trace of Precipitation, MM = Missing Value Source: Averaged Metar Reports

Daily Weather History Graph

Daily Weather History Graph

Search for Another Location

Airport or City:

Trip Planner

Search our weather history database for the weather conditions in past years. The results will help you decide how hot, cold, wet, or windy it might be!

Date:

Astronomy

Aug. 25, 2013 Rise Set
Actual Time 6:34 AM CDT 8:26 PM CDT
Civil Twilight 5:59 AM CDT 9:00 PM CDT
Nautical Twilight 5:17 AM CDT 9:43 PM CDT
Astronomical Twilight 4:29 AM CDT 10:30 PM CDT
Moon 10:21 PM CDT (8/25) 12:12 PM CDT (8/25)
Length of Visible Light 15h 01m
Length of Day
13h 52m
Waning Gibbous, 75% of the Moon is Illuminated
Aug 25
Waning Gibbous
Aug 28
Last Quarter
Sep 5
New
Sep 12
First Quarter
Sep 19
Full

Hourly Weather History & Observations

Time (CDT) Temp. Heat Index Dew Point Humidity Pressure Visibility Wind Dir Wind Speed Gust Speed Precip Events Conditions
12:00 AM 71.6 °F - 68.0 °F 88% 29.72 in 15.0 mi SSW 8.1 mph - N/A   Mostly Cloudy
1:00 AM 71 °F - 71 °F 99% 29.73 in 9 mi Calm Calm - -  
1:00 AM 69.8 °F - 68.0 °F 94% 29.74 in 15.0 mi SSE 8.1 mph - N/A   Mostly Cloudy
2:00 AM 71.6 °F - 68.0 °F 88% 29.74 in 15.0 mi SSW 6.9 mph - N/A   Mostly Cloudy
3:00 AM 69.8 °F - 66.2 °F 88% 29.74 in 15.0 mi WSW 4.6 mph - N/A   Scattered Clouds
4:00 AM 69.8 °F - 66.2 °F 88% 29.76 in 15.0 mi WSW 5.8 mph - N/A   Mostly Cloudy
5:00 AM 71.6 °F - 66.2 °F 83% 29.77 in 15.0 mi WSW 8.1 mph - N/A   Mostly Cloudy
6:00 AM 69.8 °F - 64.4 °F 83% 29.79 in 15.0 mi WSW 9.2 mph - N/A   Scattered Clouds
7:00 AM 68 °F - 68 °F 99% 29.81 in 9 mi Calm Calm - -  
7:00 AM 68.0 °F - 64.4 °F 88% 29.81 in 15.0 mi West 9.2 mph - N/A   Clear
8:00 AM 69.8 °F - 64.4 °F 83% 29.83 in 10.0 mi West 5.8 mph - N/A   Clear
9:00 AM 71.6 °F - 66.2 °F 83% 29.84 in 10.0 mi West 5.8 mph - N/A   Clear
10:00 AM 77.0 °F - 68.0 °F 74% 29.86 in 10.0 mi West 6.9 mph - N/A   Clear
11:00 AM 80.6 °F 82.7 °F 66.2 °F 61% 29.86 in 10.0 mi North 4.6 mph - N/A   Clear
12:00 PM 84.2 °F 86.6 °F 66.2 °F 55% 29.87 in 10.0 mi WNW 2.3 mph - N/A   Clear
1:00 PM 86 °F - 68 °F 46% 29.86 in 9 mi Calm Calm - -  
1:00 PM 86.0 °F 87.3 °F 64.4 °F 48% 29.87 in 12.0 mi West 5.8 mph - N/A   Mostly Cloudy
2:00 PM 89.6 °F 91.1 °F 64.4 °F 43% 29.86 in 12.0 mi Variable 2.3 mph - N/A   Mostly Cloudy
3:00 PM 91.4 °F 91.4 °F 60.8 °F 36% 29.87 in 15.0 mi WNW 10.4 mph - N/A   Mostly Cloudy
4:00 PM 89.6 °F 87.3 °F 53.6 °F 29% 29.87 in 15.0 mi WNW 13.8 mph - N/A   Mostly Cloudy
5:00 PM 86.0 °F 85.4 °F 59.0 °F 40% 29.88 in 15.0 mi WNW 10.4 mph - N/A   Mostly Cloudy
6:00 PM 86.0 °F 85.4 °F 59.0 °F 40% 29.89 in 15.0 mi NW 6.9 mph - N/A   Mostly Cloudy
7:00 PM 84 °F - 67 °F 48% 29.89 in 9 mi Calm Calm - -  
7:00 PM 82.4 °F 83.9 °F 64.4 °F 54% 29.90 in 15.0 mi NW 4.6 mph - N/A   Mostly Cloudy
8:00 PM 78.8 °F - 64.4 °F 61% 29.90 in 15.0 mi NW 2.3 mph - N/A   Mostly Cloudy
9:00 PM 71.6 °F - 62.6 °F 73% 29.91 in 15.0 mi NW 3.5 mph - N/A   Partly Cloudy
10:00 PM 69.8 °F - 60.8 °F 73% 29.93 in 15.0 mi East 2.3 mph - N/A   Scattered Clouds
11:00 PM 69.8 °F - 60.8 °F 73% 29.93 in 15.0 mi Calm Calm - N/A   Mostly Cloudy